Overview Statistics Trail Chart Weather Telemetry Raw packets
 

This is the latest recevied weather packets stored in our database for station/object WX4SGA. If no packets are shown the sender has not sent any weather packets the latest 10 day(s).

<< 92 93 94 95 96 97 98 >>
Time Temp. Humidity Pressure Rain* Wind** Luminosity Snow
1787931762 29.44° C 80% 1018.3 hPa 0 mm - 247 W/m² -
1787931461 29.44° C 80% 1018.3 hPa 0 mm - 256 W/m² -
1787931156 29.44° C 82% 1018 hPa 0 mm - 307 W/m² -
1787930855 28.89° C 83% 1018 hPa 0 mm - 435 W/m² -
1787930550 28.89° C 83% 1018 hPa 0 mm - 220 W/m² -
1787930245 28.89° C 81% 1018 hPa 0 mm - 284 W/m² -
1787929944 28.89° C 82% 1018 hPa 0 mm - 238 W/m² -
1787929643 28.89° C 83% 1018 hPa 0 mm - 508 W/m² -
1787929338 28.89° C 84% 1018 hPa 0 mm - 519 W/m² -
1787929036 28.33° C 84% 1018 hPa 0 mm - 309 W/m² -
1787928732 27.78° C 86% 1018 hPa 0 mm - 286 W/m² -
1787928429 28.33° C 85% 1018 hPa 0 mm - 248 W/m² -
1787928129 27.78° C 87% 1017.6 hPa 0 mm - 352 W/m² -
1787927823 27.78° C 88% 1018 hPa 0 mm - 278 W/m² -
1787927518 28.33° C 86% 1018 hPa 0 mm - 239 W/m² -
1787927213 28.33° C 87% 1018 hPa 0 mm - 352 W/m² -
1787926908 27.22° C 91% 1017.6 hPa 0 mm - 462 W/m² -
1787926601 27.78° C 91% 1017.6 hPa 0 mm - 263 W/m² -
1787926295 27.78° C 91% 1017.6 hPa 0 mm - 577 W/m² -
1787925990 27.22° C 93% 1017.6 hPa 0 mm - 581 W/m² -
1787925684 26.67° C 94% 1017.6 hPa 0 mm - 342 W/m² -
1787925379 26.67° C 95% 1017.6 hPa 0 mm - 153 W/m² -
1787925078 26.11° C 96% 1017.6 hPa 0 mm - 177 W/m² -
1787924772 26.11° C 97% 1017.3 hPa 0 mm - 204 W/m² -
1787924473 26.11° C 99% 1017.3 hPa 0 mm - 273 W/m² -

* Rain latest hour (hover to see other rain measurements)
** Current wind speed in m/s (hover to see current wind gust speed)